Location: Peebles
(55.6412°N, 3.1714°W)
Time: 05:29:15
(UTC+01:00)

deb NNS O-4 - Pass Details

Date: 02 July 2022
Orbit: 977 x 1074 km, 89.9° (Epoch: 16 August)

Event Time Altitude Azimuth Distance (km) Brightness Sun altitude
Exits shadow 01:22:47 - 139° (SE) 3,504 ? -11.3°
Reaches altitude 10° 01:24:33 10° 133° (SE) 2,906 ? -11.3°
Maximum altitude 01:30:25 34° 72° (ENE) 1,682 ? -11.3°
Drops below altitude 10° 01:36:13 10° 10° (N) 2,888 ? -11.2°
Sets 01:38:59 0° 2° (N) 3,833 ? -11.2°
